Zurück zum Katalog

STARLINK-38099

AktivKommunikationSSO
NORAD 69987·PAYLOAD·🇺🇸 United States

Gestartet Jul 11, 2026 von Vandenberg Space Force Base

Loading…

Nächste Überflüge (nächste 24 Stunden)

TLE

AktuellSource: CelesTrak SupGP

Epoche: Sep 15, 2026, 04:04 UTC

1 69987C 26159N   26258.16993056 -.02682600  00000+0 -45396-1 0  2585
2 69987  97.2849  99.8940 0002228  94.9052 105.1379 15.52968367    11

Verfolge STARLINK-38099 in Echtzeit mit AllMySat

Download on the App Store